Time,TemperatureF,DewpointF,PressureIn,WindDirection,WindDirectionDegrees,WindSpeedMPH,WindSpeedGustMPH,Humidity,HourlyPrecipIn,Conditions,Clouds,dailyrainin,SoftwareType,DateUTC
2013-10-04 00:04:00,68.5,28.2,29.95,NW,319,6.0,8.9,22,0.00,,,0.00,meteobridge,2013-10-04 07:04:00,
2013-10-04 00:09:00,68.4,28.0,29.95,NE,36,10.1,14.1,22,0.00,,,0.00,meteobridge,2013-10-04 07:09:00,
2013-10-04 00:15:00,68.4,28.0,29.95,NNW,345,2.9,13.0,22,0.00,,,0.00,meteobridge,2013-10-04 07:15:00,
2013-10-04 00:20:00,68.4,28.0,29.95,NNE,26,6.9,6.9,22,0.00,,,0.00,meteobridge,2013-10-04 07:20:00,
2013-10-04 00:25:00,68.0,28.8,29.96,North,11,4.9,11.0,23,0.00,,,0.00,meteobridge,2013-10-04 07:25:00,
2013-10-04 00:30:00,68.0,28.8,29.96,NNE,15,4.0,4.9,23,0.00,,,0.00,meteobridge,2013-10-04 07:30:00,
2013-10-04 00:35:00,67.8,28.6,29.96,NNE,16,4.9,19.0,23,0.00,,,0.00,meteobridge,2013-10-04 07:35:00,
2013-10-04 00:40:00,68.2,28.9,29.96,WNW,295,4.0,8.9,23,0.00,,,0.00,meteobridge,2013-10-04 07:40:00,
2013-10-04 00:45:00,67.6,28.6,29.96,NNE,13,2.0,11.0,23,0.00,,,0.00,meteobridge,2013-10-04 07:45:00,
2013-10-04 00:51:00,67.6,28.6,29.96,NNE,22,8.1,12.1,23,0.00,,,0.00,meteobridge,2013-10-04 07:51:00,
2013-10-04 00:56:00,67.5,28.4,29.96,NE,42,2.9,14.1,23,0.00,,,0.00,meteobridge,2013-10-04 07:56:00,
2013-10-04 01:01:00,67.5,28.4,29.96,NNW,346,6.9,12.1,23,0.00,,,0.00,meteobridge,2013-10-04 08:01:00,
2013-10-04 01:06:00,67.6,28.6,29.96,NW,315,6.9,8.9,23,0.00,,,0.00,meteobridge,2013-10-04 08:06:00,
2013-10-04 01:11:00,67.6,28.6,29.95,NNW,330,2.0,15.0,23,0.00,,,0.00,meteobridge,2013-10-04 08:11:00,
2013-10-04 01:16:00,67.5,28.4,29.95,NW,308,4.0,14.1,23,0.00,,,0.00,meteobridge,2013-10-04 08:16:00,
2013-10-04 01:21:00,67.5,28.4,29.95,ENE,66,4.9,15.0,23,0.00,,,0.00,meteobridge,2013-10-04 08:21:00,
2013-10-04 01:26:00,67.5,28.4,29.95,NW,323,8.9,15.0,23,0.00,,,0.00,meteobridge,2013-10-04 08:26:00,
2013-10-04 01:32:00,67.5,28.4,29.95,NNE,22,2.9,8.9,23,0.00,,,0.00,meteobridge,2013-10-04 08:32:00,
2013-10-04 01:37:00,67.3,28.2,29.95,NNW,347,2.0,10.1,23,0.00,,,0.00,meteobridge,2013-10-04 08:37:00,
2013-10-04 01:42:00,67.3,28.2,29.95,NNW,330,12.1,13.0,23,0.00,,,0.00,meteobridge,2013-10-04 08:42:00,
2013-10-04 01:47:00,67.1,28.0,29.95,NNW,329,2.9,4.9,23,0.00,,,0.00,meteobridge,2013-10-04 08:47:00,
2013-10-04 01:52:00,67.1,28.0,29.95,WNW,303,6.0,17.0,23,0.00,,,0.00,meteobridge,2013-10-04 08:52:00,
2013-10-04 01:57:00,67.3,27.1,29.95,NNW,339,4.0,12.1,22,0.00,,,0.00,meteobridge,2013-10-04 08:57:00,
2013-10-04 02:02:00,67.1,27.0,29.95,NE,47,10.1,19.9,22,0.00,,,0.00,meteobridge,2013-10-04 09:02:00,
2013-10-04 02:07:00,67.3,27.1,29.96,NNW,348,0.9,11.0,22,0.00,,,0.00,meteobridge,2013-10-04 09:07:00,
2013-10-04 02:12:00,67.1,27.0,29.96,NNE,32,8.9,19.0,22,0.00,,,0.00,meteobridge,2013-10-04 09:12:00,
2013-10-04 02:18:00,67.1,27.0,29.96,NE,49,2.9,10.1,22,0.00,,,0.00,meteobridge,2013-10-04 09:18:00,
2013-10-04 02:23:00,66.7,27.7,29.96,NNW,333,0.9,6.0,23,0.00,,,0.00,meteobridge,2013-10-04 09:23:00,
2013-10-04 02:28:00,66.7,27.7,29.96,NNE,16,2.0,14.1,23,0.00,,,0.00,meteobridge,2013-10-04 09:28:00,
2013-10-04 02:33:00,66.6,27.7,29.96,NE,49,11.0,15.0,23,0.00,,,0.00,meteobridge,2013-10-04 09:33:00,
2013-10-04 02:38:00,66.4,27.5,29.95,NE,47,6.0,10.1,23,0.00,,,0.00,meteobridge,2013-10-04 09:38:00,
2013-10-04 02:43:00,66.4,27.5,29.95,ENE,60,4.0,6.0,23,0.00,,,0.00,meteobridge,2013-10-04 09:43:00,
2013-10-04 02:48:00,66.6,27.7,29.95,NNW,329,11.0,13.0,23,0.00,,,0.00,meteobridge,2013-10-04 09:48:00,
2013-10-04 02:53:00,66.4,27.5,29.95,NW,317,6.0,12.1,23,0.00,,,0.00,meteobridge,2013-10-04 09:53:00,
2013-10-04 02:58:00,66.4,27.5,29.95,NW,319,11.0,15.0,23,0.00,,,0.00,meteobridge,2013-10-04 09:58:00,
2013-10-04 03:04:00,66.4,27.5,29.95,NNW,329,8.9,13.0,23,0.00,,,0.00,meteobridge,2013-10-04 10:04:00,
2013-10-04 03:09:00,66.4,27.5,29.95,NW,313,8.9,21.9,23,0.00,,,0.00,meteobridge,2013-10-04 10:09:00,
2013-10-04 03:14:00,66.4,27.5,29.95,NW,304,4.0,12.1,23,0.00,,,0.00,meteobridge,2013-10-04 10:14:00,
2013-10-04 03:19:00,66.0,28.2,29.95,NNE,30,4.9,6.0,24,0.00,,,0.00,meteobridge,2013-10-04 10:19:00,
2013-10-04 03:24:00,66.0,28.2,29.95,NNE,30,6.0,8.9,24,0.00,,,0.00,meteobridge,2013-10-04 10:24:00,
2013-10-04 03:29:00,65.8,28.0,29.95,NE,54,13.0,13.0,24,0.00,,,0.00,meteobridge,2013-10-04 10:29:00,
2013-10-04 03:34:00,65.8,28.0,29.95,NW,309,4.0,11.0,24,0.00,,,0.00,meteobridge,2013-10-04 10:34:00,
2013-10-04 03:40:00,65.8,28.0,29.95,NW,308,17.9,19.9,24,0.00,,,0.00,meteobridge,2013-10-04 10:40:00,
2013-10-04 03:45:00,65.7,27.9,29.95,NNE,26,8.9,8.9,24,0.00,,,0.00,meteobridge,2013-10-04 10:45:00,
2013-10-04 03:50:00,65.7,27.9,29.95,NNW,342,4.0,12.1,24,0.00,,,0.00,meteobridge,2013-10-04 10:50:00,
2013-10-04 03:55:00,65.3,27.5,29.94,NNE,17,2.0,4.0,24,0.00,,,0.00,meteobridge,2013-10-04 10:55:00,
2013-10-04 04:00:00,65.1,27.5,29.94,NW,317,2.0,4.9,24,0.00,,,0.00,meteobridge,2013-10-04 11:00:00,
2013-10-04 04:05:00,65.1,27.5,29.94,NNE,15,4.0,11.0,24,0.00,,,0.00,meteobridge,2013-10-04 11:05:00,
2013-10-04 04:10:00,65.3,27.5,29.94,WNW,286,8.1,14.1,24,0.00,,,0.00,meteobridge,2013-10-04 11:10:00,
2013-10-04 04:15:00,65.3,27.5,29.94,NNW,332,0.9,4.9,24,0.00,,,0.00,meteobridge,2013-10-04 11:15:00,
2013-10-04 04:20:00,65.1,28.4,29.94,ENE,70,2.0,6.9,25,0.00,,,0.00,meteobridge,2013-10-04 11:20:00,
2013-10-04 04:26:00,65.1,27.5,29.94,WSW,245,2.0,6.9,24,0.00,,,0.00,meteobridge,2013-10-04 11:26:00,
2013-10-04 04:31:00,65.3,27.5,29.94,ESE,109,2.0,16.1,24,0.00,,,0.00,meteobridge,2013-10-04 11:31:00,
2013-10-04 04:36:00,65.1,27.5,29.94,NNW,333,4.0,11.0,24,0.00,,,0.00,meteobridge,2013-10-04 11:36:00,
2013-10-04 04:41:00,65.1,27.5,29.93,North,349,2.9,8.9,24,0.00,,,0.00,meteobridge,2013-10-04 11:41:00,
2013-10-04 04:46:00,65.1,27.5,29.93,NNE,28,0.9,11.0,24,0.00,,,0.00,meteobridge,2013-10-04 11:46:00,
2013-10-04 04:52:00,65.1,27.5,29.93,NE,44,0.0,2.9,24,0.00,,,0.00,meteobridge,2013-10-04 11:52:00,
2013-10-04 04:57:00,65.1,27.5,29.93,WSW,249,2.0,6.9,24,0.00,,,0.00,meteobridge,2013-10-04 11:57:00,
2013-10-04 05:02:00,64.9,27.3,29.93,NNE,32,6.0,21.9,24,0.00,,,0.00,meteobridge,2013-10-04 12:02:00,
2013-10-04 05:07:00,65.1,27.5,29.93,NNE,24,12.1,12.1,24,0.00,,,0.00,meteobridge,2013-10-04 12:07:00,
2013-10-04 05:12:00,65.1,27.5,29.93,NW,322,4.9,6.0,24,0.00,,,0.00,meteobridge,2013-10-04 12:12:00,
2013-10-04 05:17:00,64.9,27.3,29.93,NNE,27,4.0,4.9,24,0.00,,,0.00,meteobridge,2013-10-04 12:17:00,
2013-10-04 05:22:00,64.9,27.3,29.93,NW,304,12.1,17.0,24,0.00,,,0.00,meteobridge,2013-10-04 12:22:00,
2013-10-04 05:27:00,65.1,27.5,29.93,NNW,329,4.0,10.1,24,0.00,,,0.00,meteobridge,2013-10-04 12:27:00,
2013-10-04 05:32:00,64.9,27.3,29.93,NE,54,6.9,6.9,24,0.00,,,0.00,meteobridge,2013-10-04 12:32:00,
2013-10-04 05:37:00,64.9,27.3,29.93,NNW,336,6.9,11.0,24,0.00,,,0.00,meteobridge,2013-10-04 12:37:00,
2013-10-04 05:42:00,65.1,26.4,29.93,NW,317,6.9,14.1,23,0.00,,,0.00,meteobridge,2013-10-04 12:42:00,
2013-10-04 05:48:00,65.1,26.4,29.93,ENE,57,6.0,6.9,23,0.00,,,0.00,meteobridge,2013-10-04 12:48:00,
2013-10-04 05:53:00,65.1,26.4,29.93,NW,304,10.1,11.0,23,0.00,,,0.00,meteobridge,2013-10-04 12:53:00,
2013-10-04 05:58:00,64.9,26.2,29.93,NNW,327,10.1,10.1,23,0.00,,,0.00,meteobridge,2013-10-04 12:58:00,
2013-10-04 06:03:00,64.9,26.2,29.93,NW,308,2.9,6.0,23,0.00,,,0.00,meteobridge,2013-10-04 13:03:00,
2013-10-04 06:08:00,64.8,26.1,29.94,NW,310,4.0,4.0,23,0.00,,,0.00,meteobridge,2013-10-04 13:08:00,
2013-10-04 06:13:00,64.6,27.0,29.94,NNE,26,8.9,8.9,24,0.00,,,0.00,meteobridge,2013-10-04 13:13:00,
2013-10-04 06:18:00,64.6,27.0,29.94,NNE,26,2.0,6.0,24,0.00,,,0.00,meteobridge,2013-10-04 13:18:00,
2013-10-04 06:23:00,64.4,26.8,29.95,NW,326,4.9,10.1,24,0.00,,,0.00,meteobridge,2013-10-04 13:23:00,
2013-10-04 06:29:00,64.6,27.0,29.95,West,271,6.9,6.9,24,0.00,,,0.00,meteobridge,2013-10-04 13:29:00,
2013-10-04 06:34:00,64.6,27.0,29.95,NW,307,2.0,4.0,24,0.00,,,0.00,meteobridge,2013-10-04 13:34:00,
2013-10-04 06:39:00,64.4,26.8,29.95,NNW,331,2.0,4.0,24,0.00,,,0.00,meteobridge,2013-10-04 13:39:00,
2013-10-04 06:44:00,64.6,25.9,29.95,NNW,334,0.0,4.9,23,0.00,,,0.00,meteobridge,2013-10-04 13:44:00,
2013-10-04 06:49:00,64.2,25.7,29.95,NNE,32,0.9,4.0,23,0.00,,,0.00,meteobridge,2013-10-04 13:49:00,
2013-10-04 06:54:00,64.6,25.9,29.95,NNW,342,0.9,11.0,23,0.00,,,0.00,meteobridge,2013-10-04 13:54:00,
2013-10-04 07:00:00,64.4,25.7,29.95,West,281,2.0,4.0,23,0.00,,,0.00,meteobridge,2013-10-04 14:00:00,
2013-10-04 07:05:00,64.8,25.0,29.95,West,280,2.9,6.0,22,0.00,,,0.00,meteobridge,2013-10-04 14:05:00,
2013-10-04 07:10:00,64.6,25.9,29.95,NW,326,4.0,4.0,23,0.00,,,0.00,meteobridge,2013-10-04 14:10:00,
2013-10-04 07:15:00,64.8,26.1,29.95,West,280,4.9,4.9,23,0.00,,,0.00,meteobridge,2013-10-04 14:15:00,
2013-10-04 07:20:00,64.8,26.1,29.95,NNW,331,4.0,4.9,23,0.00,,,0.00,meteobridge,2013-10-04 14:20:00,
2013-10-04 07:25:00,64.8,26.1,29.95,NW,313,11.0,13.0,23,0.00,,,0.00,meteobridge,2013-10-04 14:25:00,
2013-10-04 07:30:00,64.9,26.2,29.95,SSW,200,2.0,2.9,23,0.00,,,0.00,meteobridge,2013-10-04 14:30:00,
2013-10-04 07:36:00,64.8,26.1,29.95,West,277,2.0,4.0,23,0.00,,,0.00,meteobridge,2013-10-04 14:36:00,
2013-10-04 07:41:00,65.1,26.4,29.96,NW,319,0.9,6.9,23,0.00,,,0.00,meteobridge,2013-10-04 14:41:00,
2013-10-04 07:46:00,65.5,26.8,29.96,WNW,302,2.9,4.9,23,0.00,,,0.00,meteobridge,2013-10-04 14:46:00,
2013-10-04 07:51:00,65.5,25.7,29.96,NNE,24,4.0,6.9,22,0.00,,,0.00,meteobridge,2013-10-04 14:51:00,
2013-10-04 07:56:00,65.8,25.9,29.96,NE,55,4.9,11.0,22,0.00,,,0.00,meteobridge,2013-10-04 14:56:00,
2013-10-04 08:01:00,66.0,26.1,29.96,WNW,292,2.0,13.0,22,0.00,,,0.00,meteobridge,2013-10-04 15:01:00,
2013-10-04 08:06:00,66.4,26.4,29.96,NW,305,2.9,8.9,22,0.00,,,0.00,meteobridge,2013-10-04 15:06:00,
2013-10-04 08:12:00,66.6,25.3,29.96,NNE,16,4.9,11.0,21,0.00,,,0.00,meteobridge,2013-10-04 15:12:00,
2013-10-04 08:17:00,66.6,26.6,29.96,NW,307,17.0,17.0,22,0.00,,,0.00,meteobridge,2013-10-04 15:17:00,
2013-10-04 08:21:00,66.7,25.5,29.96,NNE,22,4.0,10.1,21,0.00,,,0.00,meteobridge,2013-10-04 15:21:00,
2013-10-04 08:26:00,66.9,26.8,29.97,NW,319,8.1,12.1,22,0.00,,,0.00,meteobridge,2013-10-04 15:26:00,
2013-10-04 08:31:00,67.1,27.0,29.97,NW,306,2.9,8.9,22,0.00,,,0.00,meteobridge,2013-10-04 15:31:00,
2013-10-04 08:36:00,67.3,26.1,29.97,NW,317,4.9,13.0,21,0.00,,,0.00,meteobridge,2013-10-04 15:36:00,
2013-10-04 08:41:00,67.6,26.2,29.97,West,280,2.9,11.0,21,0.00,,,0.00,meteobridge,2013-10-04 15:41:00,
2013-10-04 08:46:00,67.8,26.4,29.97,NW,305,21.9,23.9,21,0.00,,,0.00,meteobridge,2013-10-04 15:46:00,
2013-10-04 08:51:00,68.2,25.5,29.97,SW,225,0.9,8.9,20,0.00,,,0.00,meteobridge,2013-10-04 15:51:00,
2013-10-04 08:57:00,68.4,25.7,29.97,WNW,292,6.0,15.0,20,0.00,,,0.00,meteobridge,2013-10-04 15:57:00,
2013-10-04 09:02:00,68.5,25.9,29.97,NNW,347,4.9,17.0,20,0.00,,,0.00,meteobridge,2013-10-04 16:02:00,
2013-10-04 09:07:00,68.5,25.9,29.98,NW,309,2.9,16.1,20,0.00,,,0.00,meteobridge,2013-10-04 16:07:00,
2013-10-04 09:12:00,68.5,27.1,29.98,NW,319,4.0,15.0,21,0.00,,,0.00,meteobridge,2013-10-04 16:12:00,
2013-10-04 09:17:00,68.7,27.1,29.98,NNW,336,12.1,12.1,21,0.00,,,0.00,meteobridge,2013-10-04 16:17:00,
2013-10-04 09:22:00,68.9,27.3,29.98,East,101,0.9,15.0,21,0.00,,,0.00,meteobridge,2013-10-04 16:22:00,
2013-10-04 09:27:00,69.1,27.5,29.98,WNW,296,2.0,8.9,21,0.00,,,0.00,meteobridge,2013-10-04 16:27:00,
2013-10-04 09:32:00,69.4,26.6,29.98,SW,230,2.0,15.0,20,0.00,,,0.00,meteobridge,2013-10-04 16:32:00,
2013-10-04 09:38:00,70.0,25.9,29.99,ENE,63,6.9,15.0,19,0.00,,,0.00,meteobridge,2013-10-04 16:38:00,
2013-10-04 09:43:00,70.3,27.3,29.99,WNW,294,4.9,8.1,20,0.00,,,0.00,meteobridge,2013-10-04 16:43:00,
2013-10-04 09:48:00,70.3,26.1,29.99,West,260,2.0,8.9,19,0.00,,,0.00,meteobridge,2013-10-04 16:48:00,
2013-10-04 09:53:00,70.9,28.9,29.99,ESE,102,2.0,2.9,21,0.00,,,0.00,meteobridge,2013-10-04 16:53:00,
2013-10-04 09:58:00,71.2,26.8,29.99,NW,311,6.0,15.0,19,0.00,,,0.00,meteobridge,2013-10-04 16:58:00,
2013-10-04 10:03:00,71.4,25.7,29.99,NNW,329,14.1,15.0,18,0.00,,,0.00,meteobridge,2013-10-04 17:03:00,
2013-10-04 10:08:00,71.6,27.1,29.99,NNW,331,2.0,8.9,19,0.00,,,0.00,meteobridge,2013-10-04 17:08:00,
2013-10-04 10:14:00,71.8,27.3,29.99,NW,326,4.0,16.1,19,0.00,,,0.00,meteobridge,2013-10-04 17:14:00,
2013-10-04 10:19:00,72.0,28.8,29.99,West,263,4.9,6.0,20,0.00,,,0.00,meteobridge,2013-10-04 17:19:00,
2013-10-04 10:24:00,72.7,28.0,30.00,SW,219,2.9,6.9,19,0.00,,,0.00,meteobridge,2013-10-04 17:24:00,
2013-10-04 10:29:00,73.0,28.4,30.00,WNW,282,0.9,6.9,19,0.00,,,0.00,meteobridge,2013-10-04 17:29:00,
2013-10-04 10:34:00,72.7,26.8,30.00,WSW,253,6.0,10.1,18,0.00,,,0.00,meteobridge,2013-10-04 17:34:00,
2013-10-04 11:00:00,73.8,27.7,30.01,West,264,2.9,6.0,18,0.00,,,0.00,meteobridge,2013-10-04 18:00:00,
2013-10-04 11:05:00,73.9,27.7,30.01,NW,305,0.0,4.9,18,0.00,,,0.00,meteobridge,2013-10-04 18:05:00,
2013-10-04 11:10:00,73.9,26.4,30.01,East,86,4.0,6.0,17,0.00,,,0.00,meteobridge,2013-10-04 18:10:00,
2013-10-04 11:15:00,73.9,27.7,30.01,NW,326,4.0,8.9,18,0.00,,,0.00,meteobridge,2013-10-04 18:15:00,
2013-10-04 11:20:00,74.5,26.8,30.01,NNW,348,4.0,11.0,17,0.00,,,0.00,meteobridge,2013-10-04 18:20:00,
2013-10-04 11:25:00,74.8,27.1,30.01,ESE,104,4.0,6.0,17,0.00,,,0.00,meteobridge,2013-10-04 18:25:00,
2013-10-04 11:30:00,75.2,27.3,30.01,ENE,61,2.0,6.9,17,0.00,,,0.00,meteobridge,2013-10-04 18:30:00,
2013-10-04 11:35:00,75.6,26.2,30.01,NE,55,4.9,8.9,16,0.00,,,0.00,meteobridge,2013-10-04 18:35:00,
2013-10-04 11:41:00,75.6,26.2,30.00,ENE,66,8.9,11.0,16,0.00,,,0.00,meteobridge,2013-10-04 18:41:00,
2013-10-04 11:46:00,75.7,26.4,30.00,NNE,26,2.0,10.1,16,0.00,,,0.00,meteobridge,2013-10-04 18:46:00,
2013-10-04 11:51:00,76.3,25.2,30.00,NNE,23,4.9,10.1,15,0.00,,,0.00,meteobridge,2013-10-04 18:51:00,
2013-10-04 11:56:00,76.3,25.2,30.00,ENE,67,11.0,14.1,15,0.00,,,0.00,meteobridge,2013-10-04 18:56:00,
2013-10-04 12:02:00,75.4,24.4,30.00,NNE,18,4.0,14.1,15,0.00,,,0.00,meteobridge,2013-10-04 19:02:00,
2013-10-04 12:07:00,75.9,26.4,30.01,NNE,31,0.9,11.0,16,0.00,,,0.00,meteobridge,2013-10-04 19:07:00,
2013-10-04 12:12:00,76.3,23.5,30.01,NE,39,8.1,17.9,14,0.00,,,0.00,meteobridge,2013-10-04 19:12:00,
2013-10-04 12:17:00,75.9,25.0,30.01,NE,47,4.9,12.1,15,0.00,,,0.00,meteobridge,2013-10-04 19:17:00,
2013-10-04 12:23:00,76.3,25.2,30.01,ENE,63,6.0,15.0,15,0.00,,,0.00,meteobridge,2013-10-04 19:23:00,
2013-10-04 12:28:00,76.3,25.2,30.01,ESE,108,2.9,14.1,15,0.00,,,0.00,meteobridge,2013-10-04 19:28:00,
2013-10-04 12:33:00,76.5,25.3,30.01,SE,141,4.9,11.0,15,0.00,,,0.00,meteobridge,2013-10-04 19:33:00,
2013-10-04 12:38:00,76.6,23.9,30.00,NNW,345,6.0,6.9,14,0.00,,,0.00,meteobridge,2013-10-04 19:38:00,
2013-10-04 12:43:00,77.2,25.9,30.00,ENE,65,13.0,14.1,15,0.00,,,0.00,meteobridge,2013-10-04 19:43:00,
2013-10-04 12:48:00,76.8,24.1,30.00,East,98,2.9,16.1,14,0.00,,,0.00,meteobridge,2013-10-04 19:48:00,
2013-10-04 12:53:00,77.4,24.4,30.00,NW,319,2.9,8.9,14,0.00,,,0.00,meteobridge,2013-10-04 19:53:00,
2013-10-04 12:58:00,77.7,24.8,30.00,WSW,240,2.9,10.1,14,0.00,,,0.00,meteobridge,2013-10-04 19:58:00,
2013-10-04 13:03:00,77.9,24.8,30.00,East,81,4.0,8.9,14,0.00,,,0.00,meteobridge,2013-10-04 20:03:00,
2013-10-04 13:08:00,78.1,23.2,29.99,ENE,62,8.9,11.0,13,0.00,,,0.00,meteobridge,2013-10-04 20:08:00,
2013-10-04 13:13:00,78.3,23.4,29.99,ENE,72,14.1,14.1,13,0.00,,,0.00,meteobridge,2013-10-04 20:13:00,
2013-10-04 13:18:00,77.4,22.6,29.99,East,97,4.0,15.0,13,0.00,,,0.00,meteobridge,2013-10-04 20:18:00,
2013-10-04 13:24:00,77.4,22.6,29.99,ENE,58,4.9,19.9,13,0.00,,,0.00,meteobridge,2013-10-04 20:24:00,
2013-10-04 13:29:00,77.7,23.0,29.99,NNE,22,2.9,13.0,13,0.00,,,0.00,meteobridge,2013-10-04 20:29:00,
2013-10-04 13:34:00,77.9,23.2,29.99,SSE,163,6.9,10.1,13,0.00,,,0.00,meteobridge,2013-10-04 20:34:00,
2013-10-04 13:39:00,78.3,23.4,29.99,East,81,2.9,11.0,13,0.00,,,0.00,meteobridge,2013-10-04 20:39:00,
2013-10-04 13:44:00,78.3,23.4,29.99,East,94,11.0,17.0,13,0.00,,,0.00,meteobridge,2013-10-04 20:44:00,
2013-10-04 13:49:00,77.7,23.0,29.99,East,84,10.1,17.9,13,0.00,,,0.00,meteobridge,2013-10-04 20:49:00,
2013-10-04 13:54:00,78.3,23.4,29.98,ENE,63,13.0,16.1,13,0.00,,,0.00,meteobridge,2013-10-04 20:54:00,
2013-10-04 14:00:00,78.6,23.7,29.98,ENE,58,8.1,13.0,13,0.00,,,0.00,meteobridge,2013-10-04 21:00:00,
2013-10-04 14:05:00,78.8,23.7,29.98,NE,46,4.0,14.1,13,0.00,,,0.00,meteobridge,2013-10-04 21:05:00,
2013-10-04 14:10:00,79.0,23.9,29.97,North,5,4.0,11.0,13,0.00,,,0.00,meteobridge,2013-10-04 21:10:00,
2013-10-04 14:15:00,79.0,23.9,29.97,East,94,14.1,15.0,13,0.00,,,0.00,meteobridge,2013-10-04 21:15:00,
2013-10-04 14:20:00,79.2,24.1,29.97,West,278,10.1,11.0,13,0.00,,,0.00,meteobridge,2013-10-04 21:20:00,
2013-10-04 14:25:00,79.2,24.1,29.97,NE,36,10.1,17.9,13,0.00,,,0.00,meteobridge,2013-10-04 21:25:00,
2013-10-04 14:30:00,79.3,24.3,29.97,SW,232,2.0,15.0,13,0.00,,,0.00,meteobridge,2013-10-04 21:30:00,
2013-10-04 14:35:00,79.5,24.4,29.97,ESE,113,2.9,4.9,13,0.00,,,0.00,meteobridge,2013-10-04 21:35:00,
2013-10-04 14:40:00,80.1,26.6,29.97,NW,319,4.0,6.9,14,0.00,,,0.00,meteobridge,2013-10-04 21:40:00,
2013-10-04 14:46:00,80.1,22.8,29.97,NNW,336,12.1,17.0,12,0.00,,,0.00,meteobridge,2013-10-04 21:46:00,
2013-10-04 14:51:00,79.5,24.4,29.97,WNW,299,8.1,17.0,13,0.00,,,0.00,meteobridge,2013-10-04 21:51:00,
2013-10-04 14:56:00,79.5,24.4,29.96,NW,314,11.0,17.0,13,0.00,,,0.00,meteobridge,2013-10-04 21:56:00,
2013-10-04 15:01:00,79.5,24.4,29.96,North,5,2.0,10.1,13,0.00,,,0.00,meteobridge,2013-10-04 22:01:00,
2013-10-04 15:06:00,80.1,24.8,29.96,NNW,329,8.9,16.1,13,0.00,,,0.00,meteobridge,2013-10-04 22:06:00,
2013-10-04 15:11:00,80.1,24.8,29.96,NNW,333,14.1,15.0,13,0.00,,,0.00,meteobridge,2013-10-04 22:11:00,
2013-10-04 15:16:00,80.2,25.0,29.96,ENE,61,13.0,13.0,13,0.00,,,0.00,meteobridge,2013-10-04 22:16:00,
2013-10-04 15:21:00,80.4,23.2,29.96,WNW,296,0.9,8.9,12,0.00,,,0.00,meteobridge,2013-10-04 22:21:00,
2013-10-04 15:26:00,80.6,25.2,29.96,NE,39,2.9,8.9,13,0.00,,,0.00,meteobridge,2013-10-04 22:26:00,
2013-10-04 15:31:00,80.8,25.3,29.96,NW,313,4.9,12.1,13,0.00,,,0.00,meteobridge,2013-10-04 22:31:00,
2013-10-04 15:37:00,80.6,25.2,29.95,NNW,346,4.9,12.1,13,0.00,,,0.00,meteobridge,2013-10-04 22:37:00,
2013-10-04 15:42:00,81.0,25.5,29.95,ENE,62,4.9,6.9,13,0.00,,,0.00,meteobridge,2013-10-04 22:42:00,
2013-10-04 15:47:00,80.8,23.4,29.95,East,87,8.9,16.1,12,0.00,,,0.00,meteobridge,2013-10-04 22:47:00,
2013-10-04 15:52:00,80.8,23.4,29.95,East,101,17.0,17.0,12,0.00,,,0.00,meteobridge,2013-10-04 22:52:00,
2013-10-04 15:57:00,81.1,27.5,29.95,WNW,288,2.9,8.1,14,0.00,,,0.00,meteobridge,2013-10-04 22:57:00,
2013-10-04 16:02:00,81.1,25.7,29.95,ENE,61,6.9,12.1,13,0.00,,,0.00,meteobridge,2013-10-04 23:02:00,
2013-10-04 16:07:00,81.0,25.5,29.95,ENE,63,6.9,13.0,13,0.00,,,0.00,meteobridge,2013-10-04 23:07:00,
2013-10-04 16:13:00,81.0,25.5,29.95,WNW,295,2.9,6.9,13,0.00,,,0.00,meteobridge,2013-10-04 23:13:00,
2013-10-04 16:18:00,81.1,23.7,29.95,NNE,27,2.9,6.9,12,0.00,,,0.00,meteobridge,2013-10-04 23:18:00,
2013-10-04 16:23:00,81.5,24.1,29.95,NNW,333,2.0,4.9,12,0.00,,,0.00,meteobridge,2013-10-04 23:23:00,
2013-10-04 16:28:00,81.7,24.1,29.95,West,272,0.9,10.1,12,0.00,,,0.00,meteobridge,2013-10-04 23:28:00,
2013-10-04 16:33:00,81.7,26.1,29.95,ENE,61,2.9,8.1,13,0.00,,,0.00,meteobridge,2013-10-04 23:33:00,
2013-10-04 16:38:00,81.7,24.1,29.95,ENE,65,4.9,6.0,12,0.00,,,0.00,meteobridge,2013-10-04 23:38:00,
2013-10-04 16:43:00,81.3,23.9,29.95,ENE,58,4.9,10.1,12,0.00,,,0.00,meteobridge,2013-10-04 23:43:00,
2013-10-04 16:49:00,81.1,21.6,29.95,ENE,58,6.9,6.9,11,0.00,,,0.00,meteobridge,2013-10-04 23:49:00,
2013-10-04 16:54:00,81.1,21.6,29.95,North,5,2.0,12.1,11,0.00,,,0.00,meteobridge,2013-10-04 23:54:00,
2013-10-04 16:59:00,81.1,21.6,29.95,ENE,60,6.0,11.0,11,0.00,,,0.00,meteobridge,2013-10-04 23:59:00,
2013-10-04 17:04:00,81.0,23.5,29.95,NE,40,4.9,11.0,12,0.00,,,0.00,meteobridge,2013-10-05 00:04:00,
2013-10-04 17:09:00,81.1,23.7,29.95,ENE,58,4.0,10.1,12,0.00,,,0.00,meteobridge,2013-10-05 00:09:00,
2013-10-04 17:14:00,81.1,21.6,29.95,East,90,4.0,11.0,11,0.00,,,0.00,meteobridge,2013-10-05 00:14:00,
2013-10-04 17:19:00,81.0,23.5,29.95,NW,322,2.9,11.0,12,0.00,,,0.00,meteobridge,2013-10-05 00:19:00,
2013-10-04 17:25:00,81.1,23.7,29.95,NE,54,4.0,8.9,12,0.00,,,0.00,meteobridge,2013-10-05 00:25:00,
2013-10-04 17:30:00,81.3,23.9,29.95,NW,316,0.9,4.0,12,0.00,,,0.00,meteobridge,2013-10-05 00:30:00,
2013-10-04 17:35:00,81.0,23.5,29.95,ENE,60,2.0,6.9,12,0.00,,,0.00,meteobridge,2013-10-05 00:35:00,
2013-10-04 17:40:00,80.8,25.3,29.95,ENE,63,2.9,6.0,13,0.00,,,0.00,meteobridge,2013-10-05 00:40:00,
2013-10-04 17:45:00,80.4,25.2,29.95,SW,236,2.0,4.9,13,0.00,,,0.00,meteobridge,2013-10-05 00:45:00,
2013-10-04 17:50:00,80.1,24.8,29.95,WSW,238,2.0,2.9,13,0.00,,,0.00,meteobridge,2013-10-05 00:50:00,
2013-10-04 17:56:00,79.9,24.6,29.95,NW,322,0.9,6.0,13,0.00,,,0.00,meteobridge,2013-10-05 00:56:00,
2013-10-04 18:01:00,79.9,24.6,29.95,NE,37,0.9,2.9,13,0.00,,,0.00,meteobridge,2013-10-05 01:01:00,
2013-10-04 18:06:00,79.5,24.4,29.95,NNE,26,2.9,2.9,13,0.00,,,0.00,meteobridge,2013-10-05 01:06:00,
2013-10-04 18:11:00,79.3,24.3,29.95,ENE,58,2.0,2.9,13,0.00,,,0.00,meteobridge,2013-10-05 01:11:00,
2013-10-04 18:16:00,79.2,24.1,29.95,NE,55,2.9,6.9,13,0.00,,,0.00,meteobridge,2013-10-05 01:16:00,
2013-10-04 18:22:00,79.0,23.9,29.95,North,351,2.9,6.9,13,0.00,,,0.00,meteobridge,2013-10-05 01:22:00,
2013-10-04 18:27:00,78.6,25.5,29.95,ENE,68,2.0,4.0,14,0.00,,,0.00,meteobridge,2013-10-05 01:27:00,
2013-10-04 18:32:00,78.4,25.3,29.95,NE,43,0.0,0.9,14,0.00,,,0.00,meteobridge,2013-10-05 01:32:00,
2013-10-04 18:37:00,78.1,25.0,29.95,ENE,59,0.9,2.9,14,0.00,,,0.00,meteobridge,2013-10-05 01:37:00,
2013-10-04 18:42:00,77.4,26.1,29.95,North,5,0.9,2.9,15,0.00,,,0.00,meteobridge,2013-10-05 01:42:00,
2013-10-04 18:47:00,76.6,25.5,29.95,North,351,0.9,2.0,15,0.00,,,0.00,meteobridge,2013-10-05 01:47:00,
2013-10-04 18:53:00,76.1,25.2,29.96,NNE,31,0.9,2.9,15,0.00,,,0.00,meteobridge,2013-10-05 01:53:00,
2013-10-04 18:58:00,75.7,26.4,29.96,ENE,58,0.9,2.0,16,0.00,,,0.00,meteobridge,2013-10-05 01:58:00,
2013-10-04 19:03:00,75.4,24.4,29.96,NNE,13,2.0,4.0,15,0.00,,,0.00,meteobridge,2013-10-05 02:03:00,
2013-10-04 19:08:00,74.8,25.7,29.96,NNE,16,2.0,2.0,16,0.00,,,0.00,meteobridge,2013-10-05 02:08:00,
2013-10-04 19:13:00,74.1,26.6,29.96,East,81,2.0,2.0,17,0.00,,,0.00,meteobridge,2013-10-05 02:13:00,
2013-10-04 19:18:00,73.0,25.7,29.96,ENE,74,0.9,0.9,17,0.00,,,0.00,meteobridge,2013-10-05 02:18:00,
2013-10-04 19:24:00,72.5,26.6,29.96,NW,317,4.0,8.9,18,0.00,,,0.00,meteobridge,2013-10-05 02:24:00,
2013-10-04 19:29:00,72.9,25.5,29.96,NW,313,2.0,8.9,17,0.00,,,0.00,meteobridge,2013-10-05 02:29:00,
2013-10-04 19:34:00,73.9,25.0,29.96,NNE,18,2.9,15.0,16,0.00,,,0.00,meteobridge,2013-10-05 02:34:00,
2013-10-04 19:39:00,73.8,26.2,29.96,NE,42,0.9,2.9,17,0.00,,,0.00,meteobridge,2013-10-05 02:39:00,
2013-10-04 19:44:00,73.0,25.7,29.96,NE,47,0.9,4.9,17,0.00,,,0.00,meteobridge,2013-10-05 02:44:00,
2013-10-04 19:49:00,73.6,24.6,29.96,NW,305,0.9,6.9,16,0.00,,,0.00,meteobridge,2013-10-05 02:49:00,
2013-10-04 19:55:00,74.3,23.7,29.97,North,349,6.0,8.9,15,0.00,,,0.00,meteobridge,2013-10-05 02:55:00,
2013-10-04 20:00:00,74.5,25.3,29.97,NE,46,4.0,8.9,16,0.00,,,0.00,meteobridge,2013-10-05 03:00:00,
2013-10-04 20:05:00,75.0,24.3,29.97,NE,40,4.9,10.1,15,0.00,,,0.00,meteobridge,2013-10-05 03:05:00,
2013-10-04 20:10:00,75.0,24.3,29.97,NNE,12,2.9,11.0,15,0.00,,,0.00,meteobridge,2013-10-05 03:10:00,
2013-10-04 20:15:00,75.0,24.3,29.97,NE,40,11.0,15.0,15,0.00,,,0.00,meteobridge,2013-10-05 03:15:00,
2013-10-04 20:20:00,75.4,24.4,29.97,NNE,26,4.0,11.0,15,0.00,,,0.00,meteobridge,2013-10-05 03:20:00,
2013-10-04 20:25:00,75.4,24.4,29.97,ENE,60,4.0,14.1,15,0.00,,,0.00,meteobridge,2013-10-05 03:25:00,
2013-10-04 20:30:00,75.4,24.4,29.97,NNE,22,2.0,11.0,15,0.00,,,0.00,meteobridge,2013-10-05 03:30:00,
2013-10-04 20:36:00,75.0,24.3,29.97,NW,319,2.9,13.0,15,0.00,,,0.00,meteobridge,2013-10-05 03:36:00,
2013-10-04 20:41:00,75.0,24.3,29.97,NNE,30,4.0,11.0,15,0.00,,,0.00,meteobridge,2013-10-05 03:41:00,
2013-10-04 20:46:00,75.0,24.3,29.97,NW,326,4.9,10.1,15,0.00,,,0.00,meteobridge,2013-10-05 03:46:00,
2013-10-04 20:51:00,74.8,24.1,29.97,WSW,256,4.0,8.9,15,0.00,,,0.00,meteobridge,2013-10-05 03:51:00,
2013-10-04 20:56:00,74.7,23.9,29.97,NNE,24,2.0,11.0,15,0.00,,,0.00,meteobridge,2013-10-05 03:56:00,
2013-10-04 21:01:00,74.7,23.9,29.97,NE,36,4.9,6.9,15,0.00,,,0.00,meteobridge,2013-10-05 04:01:00,
2013-10-04 21:05:00,74.7,23.9,29.97,NE,53,2.9,6.9,15,0.00,,,0.00,meteobridge,2013-10-05 04:05:00,
2013-10-04 21:06:00,74.7,23.9,29.97,NNW,338,2.0,4.9,15,0.00,,,0.00,meteobridge,2013-10-05 04:06:00,
2013-10-04 21:07:00,74.7,23.9,29.97,NE,50,4.9,4.9,15,0.00,,,0.00,meteobridge,2013-10-05 04:07:00,
2013-10-04 21:09:00,74.7,23.9,29.97,NE,44,4.9,11.0,15,0.00,,,0.00,meteobridge,2013-10-05 04:09:00,
2013-10-04 21:14:00,75.0,24.3,29.97,NE,53,4.9,6.0,15,0.00,,,0.00,meteobridge,2013-10-05 04:14:00,
2013-10-04 21:19:00,74.7,23.9,29.97,NE,39,4.0,10.1,15,0.00,,,0.00,meteobridge,2013-10-05 04:19:00,
2013-10-04 21:24:00,74.7,23.9,29.98,NNW,343,4.0,12.1,15,0.00,,,0.00,meteobridge,2013-10-05 04:24:00,
2013-10-04 21:30:00,74.7,23.9,29.98,NNW,329,11.0,11.0,15,0.00,,,0.00,meteobridge,2013-10-05 04:30:00,
2013-10-04 21:35:00,74.7,23.9,29.98,NW,324,2.0,6.9,15,0.00,,,0.00,meteobridge,2013-10-05 04:35:00,
2013-10-04 21:39:00,74.7,23.9,29.98,NE,42,4.9,10.1,15,0.00,,,0.00,meteobridge,2013-10-05 04:39:00,
2013-10-04 21:44:00,74.7,23.9,29.98,NE,55,4.9,6.9,15,0.00,,,0.00,meteobridge,2013-10-05 04:44:00,
2013-10-04 21:49:00,74.5,23.7,29.98,NNE,22,2.0,4.9,15,0.00,,,0.00,meteobridge,2013-10-05 04:49:00,
2013-10-04 21:54:00,74.7,23.9,29.98,WNW,300,2.9,6.0,15,0.00,,,0.00,meteobridge,2013-10-05 04:54:00,
2013-10-04 21:59:00,74.8,24.1,29.98,NNE,13,8.9,8.9,15,0.00,,,0.00,meteobridge,2013-10-05 04:59:00,
2013-10-04 22:05:00,74.7,25.5,29.98,NNE,32,2.0,6.0,16,0.00,,,0.00,meteobridge,2013-10-05 05:05:00,
2013-10-04 22:10:00,74.7,25.5,29.98,NE,37,4.9,6.9,16,0.00,,,0.00,meteobridge,2013-10-05 05:10:00,
2013-10-04 22:15:00,74.8,24.1,29.98,NE,40,4.0,10.1,15,0.00,,,0.00,meteobridge,2013-10-05 05:15:00,
2013-10-04 22:20:00,74.8,25.7,29.98,NE,55,4.0,6.9,16,0.00,,,0.00,meteobridge,2013-10-05 05:20:00,
2013-10-04 22:25:00,74.3,25.2,29.98,ENE,58,2.9,10.1,16,0.00,,,0.00,meteobridge,2013-10-05 05:25:00,
2013-10-04 22:30:00,74.3,23.7,29.98,NE,53,6.0,15.0,15,0.00,,,0.00,meteobridge,2013-10-05 05:30:00,
2013-10-04 22:35:00,74.5,25.3,29.98,NE,46,2.9,8.9,16,0.00,,,0.00,meteobridge,2013-10-05 05:35:00,
2013-10-04 22:40:00,74.5,23.7,29.98,NNE,17,2.9,8.9,15,0.00,,,0.00,meteobridge,2013-10-05 05:40:00,
2013-10-04 22:45:00,74.7,25.5,29.98,NW,306,0.9,13.0,16,0.00,,,0.00,meteobridge,2013-10-05 05:45:00,
2013-10-04 22:51:00,74.3,25.2,29.98,NNW,329,11.0,11.0,16,0.00,,,0.00,meteobridge,2013-10-05 05:51:00,
2013-10-04 22:56:00,74.3,25.2,29.98,North,350,6.9,11.0,16,0.00,,,0.00,meteobridge,2013-10-05 05:56:00,
2013-10-04 23:01:00,74.3,25.2,29.98,NNE,32,2.9,8.9,16,0.00,,,0.00,meteobridge,2013-10-05 06:01:00,
2013-10-04 23:06:00,74.1,25.0,29.98,NNE,12,4.0,8.9,16,0.00,,,0.00,meteobridge,2013-10-05 06:06:00,
2013-10-04 23:11:00,74.5,25.3,29.99,NNE,24,2.9,8.9,16,0.00,,,0.00,meteobridge,2013-10-05 06:11:00,
2013-10-04 23:16:00,74.1,25.0,29.99,North,355,4.9,4.9,16,0.00,,,0.00,meteobridge,2013-10-05 06:16:00,
2013-10-04 23:21:00,74.1,25.0,29.99,North,350,2.9,13.0,16,0.00,,,0.00,meteobridge,2013-10-05 06:21:00,
2013-10-04 23:26:00,73.9,25.0,29.99,NNE,13,8.9,8.9,16,0.00,,,0.00,meteobridge,2013-10-05 06:26:00,
2013-10-04 23:32:00,74.1,25.0,29.99,ENE,65,2.9,10.1,16,0.00,,,0.00,meteobridge,2013-10-05 06:32:00,
2013-10-04 23:37:00,73.9,25.0,29.99,NE,49,0.9,6.9,16,0.00,,,0.00,meteobridge,2013-10-05 06:37:00,
2013-10-04 23:42:00,73.8,24.8,29.99,NE,44,6.0,6.9,16,0.00,,,0.00,meteobridge,2013-10-05 06:42:00,
2013-10-04 23:47:00,73.6,24.6,29.99,NNE,31,2.9,4.9,16,0.00,,,0.00,meteobridge,2013-10-05 06:47:00,
2013-10-04 23:52:00,73.4,24.4,30.00,NE,50,2.0,8.9,16,0.00,,,0.00,meteobridge,2013-10-05 06:52:00,
2013-10-04 23:57:00,73.2,24.3,30.00,NNE,24,4.0,4.0,16,0.00,,,0.00,meteobridge,2013-10-05 06:57:00,